G6WOV-13 Weather Reports


time (UTC)temp
C
wind
direction
speed
KPH
gust
KPH
rain 1hr
cm
rain 24hr
cm
rain mn
cm
humidity
%
barometer
mb
20260905201447 14 342 0.0 0.0 0.00 0.00 0.00 78 1021.0
20260905200946 14 342 0.0 0.0 0.00 0.00 0.00 78 1021.0
20260905200446 14 342 0.0 0.0 0.00 0.00 0.00 78 1021.0
20260905195945 14 342 0.0 0.0 0.00 0.00 0.00 78 1021.0
20260905195446 15 342 0.0 0.0 0.00 0.00 0.00 77 1021.0
20260905194946 15 342 0.0 0.0 0.00 0.00 0.00 77 1021.0
20260905194447 15 342 0.0 0.0 0.00 0.00 0.00 75 1021.0
20260905193946 15 342 0.0 0.0 0.00 0.00 0.00 75 1021.0
20260905193446 15 342 0.0 0.0 0.00 0.00 0.00 75 1021.0
20260905192946 15 342 0.0 0.0 0.00 0.00 0.00 75 1021.0
20260905192446 15 342 0.0 0.0 0.00 0.00 0.00 75 1021.3
20260905191948 15 342 0.0 0.0 0.00 0.00 0.00 74 1021.0
20260905191446 15 342 0.0 0.0 0.00 0.00 0.00 73 1021.0
20260905190945 15 342 0.0 0.0 0.00 0.00 0.00 73 1021.3
20260905190445 15 342 0.0 0.0 0.00 0.00 0.00 73 1021.0
20260905185946 15 342 0.0 1.6 0.00 0.00 0.00 72 1021.0
20260905185446 15 342 0.0 1.6 0.00 0.00 0.00 72 1021.0
20260905184946 16 342 0.0 0.0 0.00 0.00 0.00 72 1021.3
20260905184446 16 342 0.0 0.0 0.00 0.00 0.00 72 1021.0
20260905183947 16 342 0.0 1.6 0.00 0.00 0.00 71 1021.0
20260905183447 16 342 0.0 0.0 0.00 0.00 0.00 71 1021.0
20260905182946 16 342 0.0 0.0 0.00 0.00 0.00 70 1021.0
20260905182449 16 342 0.0 0.0 0.00 0.00 0.00 70 1021.0
20260905181946 16 345 1.6 1.6 0.00 0.00 0.00 69 1020.7
20260905181446 16 342 0.0 1.6 0.00 0.00 0.00 69 1021.0
20260905180945 17 343 0.0 1.6 0.00 0.00 0.00 68 1021.0
20260905180446 17 345 0.0 3.2 0.00 0.00 0.00 67 1021.0
20260905175946 17 1 0.0 1.6 0.00 0.00 0.00 66 1021.0
20260905175446 17 357 1.6 1.6 0.00 0.00 0.00 65 1021.0
20260905174946 18 13 0.0 3.2 0.00 0.00 0.00 64 1020.7
20260905174446 18 6 1.6 3.2 0.00 0.00 0.00 63 1021.0
20260905173946 18 359 0.0 4.8 0.00 0.00 0.00 63 1021.0
20260905173446 18 13 1.6 3.2 0.00 0.00 0.00 62 1021.0
20260905172946 18 333 4.8 9.7 0.00 0.00 0.00 62 1021.0
20260905172447 19 349 1.6 3.2 0.00 0.00 0.00 60 1021.0
20260905171946 18 346 1.6 3.2 0.00 0.00 0.00 60 1021.0
20260905171446 18 354 3.2 9.7 0.00 0.00 0.00 61 1021.0
20260905170946 18 355 1.6 8.0 0.00 0.00 0.00 61 1020.7
20260905170446 18 347 1.6 8.0 0.00 0.00 0.00 61 1020.7
20260905165945 18 335 4.8 4.8 0.00 0.00 0.00 60 1020.7
20260905165446 18 341 1.6 8.0 0.00 0.00 0.00 60 1020.7
20260905164946 19 356 1.6 4.8 0.00 0.00 0.00 60 1020.7
20260905164446 19 357 1.6 9.7 0.00 0.00 0.00 59 1020.7
20260905163946 19 355 1.6 11.3 0.00 0.00 0.00 59 1020.7
20260905163446 19 349 1.6 4.8 0.00 0.00 0.00 60 1020.7
20260905162946 18 23 1.6 3.2 0.00 0.00 0.00 60 1020.7
20260905162446 18 3 3.2 8.0 0.00 0.00 0.00 60 1021.0
20260905161947 18 353 1.6 8.0 0.00 0.00 0.00 61 1020.7
20260905161446 18 22 4.8 4.8 0.00 0.00 0.00 60 1020.7
20260905160946 18 1 1.6 8.0 0.00 0.00 0.00 59 1020.7
20260905160446 19 334 0.0 4.8 0.00 0.00 0.00 59 1020.7
20260905155947 19 328 6.4 9.7 0.00 0.00 0.00 59 1020.7
20260905155446 19 357 0.0 4.8 0.00 0.00 0.00 60 1020.7
20260905154946 19 9 0.0 4.8 0.00 0.00 0.00 60 1020.7
20260905154445 20 351 3.2 4.8 0.00 0.00 0.00 58 1020.7
20260905153946 20 348 1.6 9.7 0.00 0.00 0.00 58 1020.7
20260905153446 20 6 1.6 8.0 0.00 0.00 0.00 59 1020.7
20260905152946 20 346 3.2 8.0 0.00 0.00 0.00 57 1021.0
20260905152445 20 3 1.6 8.0 0.00 0.00 0.00 57 1021.0
20260905151946 20 0 3.2 9.7 0.00 0.00 0.00 57 1021.0
20260905151446 20 354 1.6 9.7 0.00 0.00 0.00 57 1021.0
20260905150946 20 5 1.6 4.8 0.00 0.00 0.00 57 1021.0
20260905150446 20 345 3.2 8.0 0.00 0.00 0.00 56 1021.0
20260905145947 20 7 3.2 8.0 0.00 0.00 0.00 55 1021.0
20260905145446 20 6 1.6 8.0 0.00 0.00 0.00 58 1020.7
20260905144946 20 355 4.8 8.0 0.00 0.00 0.00 56 1021.0
20260905144447 20 352 4.8 12.9 0.00 0.00 0.00 57 1021.3
20260905143945 20 341 1.6 3.2 0.00 0.00 0.00 55 1021.0
20260905143446 20 350 4.8 4.8 0.00 0.00 0.00 55 1021.0
20260905142946 20 351 0.0 4.8 0.00 0.00 0.00 56 1021.0
20260905142446 20 343 4.8 8.0 0.00 0.00 0.00 56 1021.3
20260905141945 20 348 1.6 4.8 0.00 0.00 0.00 58 1021.0
20260905141446 20 358 1.6 8.0 0.00 0.00 0.00 57 1021.0
20260905140946 20 3 3.2 4.8 0.00 0.00 0.00 58 1021.0
20260905140449 20 341 4.8 12.9 0.00 0.00 0.00 56 1021.3
20260905135946 20 342 0.0 8.0 0.00 0.00 0.00 58 1021.3
20260905135446 20 341 4.8 8.0 0.00 0.00 0.00 57 1021.3
20260905134946 20 22 1.6 9.7 0.00 0.00 0.00 59 1021.0
20260905134446 20 355 3.2 9.7 0.00 0.00 0.00 60 1021.3
20260905133946 19 339 1.6 4.8 0.00 0.00 0.00 60 1021.3
20260905133446 19 324 4.8 11.3 0.00 0.00 0.00 59 1021.3
20260905132946 20 351 3.2 8.0 0.00 0.00 0.00 59 1021.7
20260905132446 19 18 1.6 3.2 0.00 0.00 0.00 60 1021.3
20260905131946 19 1 3.2 4.8 0.00 0.00 0.00 60 1021.3
20260905131446 19 10 1.6 4.8 0.00 0.00 0.00 59 1021.3
20260905130946 20 351 1.6 1.6 0.00 0.00 0.00 59 1021.3
20260905130446 20 1 1.6 8.0 0.00 0.00 0.00 58 1021.3
20260905125946 19 1 1.6 8.0 0.00 0.00 0.00 60 1021.0
20260905125446 18 349 1.6 9.7 0.00 0.00 0.00 60 1021.3
20260905124946 18 13 3.2 9.7 0.00 0.00 0.00 60 1021.3
20260905124446 18 11 1.6 9.7 0.00 0.00 0.00 61 1021.0
20260905123946 18 339 4.8 11.3 0.00 0.00 0.00 59 1021.0
20260905123446 18 326 6.4 8.0 0.00 0.00 0.00 60 1021.0
20260905122946 18 35 1.6 11.3 0.00 0.00 0.00 60 1021.3
20260905122446 18 337 4.8 8.0 0.00 0.00 0.00 60 1021.0
20260905121945 18 18 6.4 9.7 0.00 0.00 0.00 59 1021.3
20260905121446 18 333 3.2 8.0 0.00 0.00 0.00 58 1021.3
20260905120945 18 355 1.6 4.8 0.00 0.00 0.00 59 1021.3
20260905120446 19 5 3.2 8.0 0.00 0.00 0.00 58 1021.0
20260905115946 19 10 1.6 3.2 0.00 0.00 0.00 57 1021.0
20260905115446 19 328 1.6 8.0 0.00 0.00 0.00 56 1021.3
20260905114946 18 0 4.8 11.3 0.00 0.00 0.00 58 1021.0
20260905114447 18 89 4.8 8.0 0.00 0.00 0.00 59 1021.0
20260905113946 18 90 4.8 9.7 0.00 0.00 0.00 59 1021.0
20260905113446 18 90 4.8 8.0 0.00 0.00 0.00 58 1021.0
20260905112946 20 88 3.2 4.8 0.00 0.00 0.00 56 1020.7
20260905112447 19 91 1.6 3.2 0.00 0.00 0.00 57 1020.7
20260905111946 18 91 0.0 4.8 0.00 0.00 0.00 60 1021.0
20260905111447 18 87 1.6 8.0 0.00 0.00 0.00 62 1021.0
20260905110945 18 88 8.0 11.3 0.00 0.00 0.00 61 1020.7
20260905110446 18 90 1.6 3.2 0.00 0.00 0.00 62 1021.3
20260905105946 18 90 1.6 4.8 0.00 0.00 0.00 62 1021.0
20260905105447 17 86 6.4 9.7 0.00 0.00 0.00 61 1021.0
20260905104946 17 90 4.8 9.7 0.00 0.00 0.00 62 1021.3
20260905104446 17 93 0.0 8.0 0.00 0.00 0.00 63 1021.0
20260905103946 17 93 0.0 4.8 0.00 0.00 0.00 62 1021.0
20260905103446 17 91 1.6 8.0 0.00 0.00 0.00 63 1021.3
20260905102945 17 91 1.6 4.8 0.00 0.00 0.00 64 1021.3
20260905102446 17 92 0.0 3.2 0.00 0.00 0.00 63 1021.3
20260905101946 17 92 3.2 8.0 0.00 0.00 0.00 63 1021.3
20260905101446 17 86 4.8 9.7 0.00 0.00 0.00 63 1021.0
20260905100946 17 91 1.6 8.0 0.00 0.00 0.00 64 1021.0
20260905100446 17 92 1.6 11.3 0.00 0.00 0.00 63 1021.3
20260905095946 17 96 1.6 4.8 0.00 0.00 0.00 64 1021.0
20260905095446 17 98 4.8 4.8 0.00 0.00 0.00 63 1021.0
20260905094946 17 95 3.2 4.8 0.00 0.00 0.00 62 1021.0
20260905094446 17 97 1.6 4.8 0.00 0.00 0.00 63 1021.0
20260905093946 17 96 0.0 1.6 0.00 0.00 0.00 63 1021.0
20260905093446 17 96 3.2 4.8 0.00 0.00 0.00 64 1021.0
20260905092949 17 96 3.2 8.0 0.00 0.00 0.00 64 1020.7
20260905092446 17 95 3.2 3.2 0.00 0.00 0.00 65 1020.7
20260905091946 17 94 1.6 8.0 0.00 0.00 0.00 65 1020.7
20260905091446 17 95 3.2 4.8 0.00 0.00 0.00 65 1020.7
20260905090945 16 96 0.0 3.2 0.00 0.00 0.00 67 1020.7
20260905090446 16 96 1.6 8.0 0.00 0.00 0.00 67 1020.7
20260905085946 16 96 0.0 11.3 0.00 0.00 0.00 67 1020.7
20260905085446 16 96 1.6 4.8 0.00 0.00 0.00 69 1020.7
20260905084945 16 96 4.8 4.8 0.00 0.00 0.00 69 1020.7
20260905084446 16 93 1.6 3.2 0.00 0.00 0.00 70 1020.7
20260905083946 16 95 1.6 8.0 0.00 0.00 0.00 69 1020.3
20260905083446 16 93 3.2 4.8 0.00 0.00 0.00 69 1020.3
20260905082945 16 93 4.8 4.8 0.00 0.00 0.00 69 1020.3
20260905082446 16 97 1.6 11.3 0.00 0.00 0.00 69 1020.3
20260905081946 16 97 1.6 4.8 0.00 0.00 0.00 70 1020.3
20260905081446 16 97 4.8 4.8 0.00 0.00 0.00 68 1020.3
20260905080946 16 101 3.2 9.7 0.00 0.00 0.00 70 1020.0
20260905080446 16 99 1.6 3.2 0.00 0.00 0.00 70 1020.0
20260905075946 16 99 3.2 3.2 0.00 0.00 0.00 70 1020.0
20260905075446 16 99 1.6 3.2 0.00 0.00 0.00 70 1019.6
20260905074947 16 99 1.6 3.2 0.00 0.00 0.00 71 1020.0
20260905074445 16 99 0.0 3.2 0.00 0.00 0.00 72 1020.0
20260905073947 16 99 1.6 4.8 0.00 0.00 0.00 73 1019.6
20260905073448 15 99 1.6 3.2 0.00 0.00 0.00 73 1019.6
20260905072946 15 99 0.0 3.2 0.00 0.00 0.00 74 1019.6
20260905072446 15 99 1.6 1.6 0.00 0.00 0.00 74 1020.0
20260905071946 15 99 0.0 0.0 0.00 0.00 0.00 75 1019.6
20260905071447 15 99 0.0 0.0 0.00 0.00 0.00 75 1019.6
20260905070946 15 99 0.0 1.6 0.00 0.00 0.00 76 1019.6
20260905070445 15 99 0.0 1.6 0.00 0.00 0.00 76 1019.6
20260905065946 15 99 0.0 1.6 0.00 0.00 0.00 76 1019.3
20260905065446 15 99 0.0 1.6 0.00 0.00 0.00 76 1019.6
20260905064946 15 100 0.0 0.0 0.00 0.00 0.00 76 1019.3
20260905064446 15 99 0.0 1.6 0.00 0.00 0.00 76 1019.3
20260905063945 15 100 0.0 0.0 0.00 0.00 0.00 76 1019.3
20260905063446 15 99 0.0 3.2 0.00 0.00 0.00 76 1019.3
20260905062946 15 99 0.0 3.2 0.00 0.00 0.00 77 1019.3
20260905062446 15 100 1.6 3.2 0.00 0.00 0.00 77 1019.3
20260905061946 15 99 1.6 4.8 0.00 0.00 0.00 78 1019.0
20260905061447 14 99 3.2 3.2 0.00 0.00 0.00 78 1019.3
20260905060946 14 99 0.0 3.2 0.00 0.00 0.00 79 1019.3
20260905060446 14 99 1.6 1.6 0.00 0.00 0.00 79 1019.3
20260905055946 14 99 0.0 1.6 0.00 0.00 0.00 80 1019.0
20260905055446 13 100 1.6 4.8 0.00 0.00 0.00 82 1019.0
20260905054946 13 99 1.6 1.6 0.00 0.00 0.00 86 1019.0
20260905054446 13 100 0.0 1.6 0.00 0.00 0.00 86 1019.0
20260905053946 13 100 0.0 1.6 0.00 0.00 0.00 85 1019.0
20260905053446 13 100 0.0 3.2 0.00 0.00 0.00 85 1019.0
20260905052946 13 100 0.0 1.6 0.00 0.00 0.00 85 1018.6
20260905052446 13 100 0.0 1.6 0.00 0.00 0.00 86 1018.6
20260905051946 13 100 3.2 3.2 0.00 0.00 0.00 86 1018.3
20260905051447 13 100 0.0 1.6 0.00 0.00 0.00 86 1018.6
20260905050946 13 99 0.0 1.6 0.00 0.00 0.00 86 1018.6
20260905050445 13 99 1.6 3.2 0.00 0.00 0.00 85 1018.6
20260905045946 13 99 1.6 3.2 0.00 0.00 0.00 85 1018.3
20260905045446 13 99 0.0 1.6 0.00 0.00 0.00 85 1018.3
20260905044946 13 98 1.6 3.2 0.00 0.00 0.00 85 1018.3
20260905044446 13 97 0.0 1.6 0.00 0.00 0.00 86 1018.3
20260905043946 13 95 1.6 1.6 0.00 0.00 0.00 86 1018.3
20260905043447 13 93 0.0 0.0 0.00 0.00 0.00 87 1017.9
20260905042946 13 100 0.0 1.6 0.00 0.00 0.00 87 1017.9
20260905042446 13 126 0.0 1.6 0.00 0.00 0.00 88 1017.9
20260905041946 13 116 0.0 1.6 0.00 0.00 0.00 88 1018.3
20260905041446 13 124 1.6 1.6 0.00 0.00 0.00 88 1017.9
20260905040946 13 131 0.0 0.0 0.00 0.00 0.00 88 1017.9
20260905040446 13 159 1.6 3.2 0.00 0.00 0.00 88 1017.9
20260905035946 13 155 1.6 1.6 0.00 0.00 0.00 88 1017.9
20260905035448 13 154 0.0 1.6 0.00 0.00 0.00 88 1017.9
20260905034946 13 153 1.6 1.6 0.00 0.00 0.00 88 1017.9
20260905034447 13 153 1.6 1.6 0.00 0.00 0.00 87 1017.6
20260905033946 13 148 0.0 1.6 0.00 0.00 0.00 86 1017.9
20260905033447 13 148 1.6 1.6 0.00 0.00 0.00 86 1017.6
20260905032947 13 115 0.0 0.0 0.00 0.00 0.00 86 1017.6
20260905032445 13 348 0.0 1.6 0.00 0.00 0.00 86 1017.6
20260905031946 13 348 0.0 0.0 0.00 0.00 0.00 86 1017.3
20260905031446 13 347 0.0 1.6 0.00 0.00 0.00 85 1017.3
20260905030946 14 350 0.0 0.0 0.00 0.00 0.00 85 1017.3
20260905030446 13 350 0.0 1.6 0.00 0.00 0.00 85 1017.6
20260905025947 13 18 0.0 1.6 0.00 0.00 0.00 85 1017.3
20260905025446 13 342 0.0 1.6 0.00 0.00 0.00 84 1017.3
20260905024946 13 311 1.6 1.6 0.00 0.00 0.00 85 1017.3
20260905024447 13 294 0.0 4.8 0.00 0.00 0.00 85 1017.3
20260905023946 13 123 0.0 1.6 0.00 0.00 0.00 85 1017.3
20260905023447 13 145 1.6 3.2 0.00 0.00 0.00 85 1017.3
20260905022946 13 39 1.6 4.8 0.00 0.00 0.00 86 1017.3
20260905022446 13 52 0.0 3.2 0.00 0.00 0.00 86 1016.9
20260905021946 13 146 0.0 1.6 0.00 0.00 0.00 86 1016.9
20260905021447 13 359 0.0 3.2 0.00 0.00 0.00 86 1016.9
20260905020948 13 165 1.6 4.8 0.00 0.00 0.00 86 1016.9
20260905020446 13 140 1.6 3.2 0.00 0.00 0.00 86 1016.9
20260905015946 13 310 3.2 4.8 0.00 0.00 0.00 85 1016.9
20260905015446 13 98 0.0 3.2 0.00 0.00 0.00 85 1016.6
20260905014946 13 138 1.6 3.2 0.00 0.00 0.00 85 1016.9
20260905014446 13 166 1.6 4.8 0.00 0.00 0.00 85 1017.3
20260905013948 13 161 1.6 3.2 0.00 0.00 0.00 85 1017.3
20260905013447 13 176 1.6 3.2 0.00 0.00 0.00 85 1016.9
20260905012945 13 123 0.0 1.6 0.00 0.00 0.00 85 1016.9
20260905012446 13 120 1.6 3.2 0.00 0.00 0.00 85 1016.6
20260905011946 13 71 1.6 3.2 0.00 0.00 0.00 85 1016.6
20260905011446 13 158 1.6 3.2 0.00 0.00 0.00 85 1016.6
20260905010946 13 169 1.6 3.2 0.00 0.00 0.00 85 1016.6
20260905010446 13 169 0.0 3.2 0.00 0.00 0.00 85 1016.6
20260905005947 13 175 3.2 3.2 0.00 0.00 0.00 86 1016.9
20260905005446 13 101 0.0 3.2 0.00 0.00 0.00 86 1016.9
20260905004946 13 166 1.6 1.6 0.00 0.00 0.00 86 1016.6
20260905004446 13 92 1.6 3.2 0.00 0.00 0.00 86 1016.9
20260905003946 13 62 0.0 3.2 0.00 0.00 0.00 85 1016.6
20260905003446 13 114 1.6 1.6 0.00 0.00 0.00 85 1016.6
20260905002947 13 158 0.0 3.2 0.00 0.00 0.00 85 1016.9
20260905002446 13 110 0.0 1.6 0.00 0.00 0.00 86 1016.9
20260905001946 13 69 0.0 3.2 0.00 0.00 0.00 85 1016.6
20260905001446 13 140 1.6 3.2 0.00 0.00 0.00 86 1016.3
20260905000945 13 145 1.6 3.2 0.00 0.00 0.00 85 1016.6
20260905000446 13 142 1.6 4.8 0.00 0.00 0.00 85 1016.6
20260904235946 13 64 0.0 1.6 0.00 0.00 0.00 85 1016.3
20260904235446 13 99 1.6 1.6 0.00 0.00 0.00 85 1016.3
20260904234947 13 171 1.6 1.6 0.00 0.00 0.00 85 1016.3
20260904234446 13 129 1.6 3.2 0.00 0.00 0.00 85 1016.3
20260904233946 13 163 1.6 3.2 0.00 0.00 0.00 85 1016.3
20260904233446 13 163 1.6 1.6 0.00 0.00 0.00 85 1016.3
20260904232947 13 115 1.6 1.6 0.00 0.00 0.00 84 1016.3
20260904232446 13 129 0.0 1.6 0.00 0.00 0.00 84 1016.3
20260904231946 13 248 1.6 3.2 0.00 0.00 0.00 84 1016.3
20260904231446 13 135 0.0 3.2 0.00 0.00 0.00 84 1016.3
20260904230946 13 159 1.6 3.2 0.00 0.00 0.00 84 1016.3
20260904230446 13 138 0.0 3.2 0.00 0.00 0.00 84 1016.3
20260904225946 13 81 1.6 1.6 0.00 0.38 0.00 84 1015.9
20260904225447 13 174 1.6 3.2 0.00 0.38 0.00 84 1015.9
20260904224946 13 142 1.6 3.2 0.00 0.38 0.00 84 1016.3
20260904224445 13 104 1.6 3.2 0.00 0.38 0.00 84 1016.3
20260904223947 13 37 1.6 1.6 0.00 0.38 0.00 84 1016.3
20260904223446 13 91 0.0 1.6 0.00 0.38 0.00 84 1015.9
20260904222947 13 133 1.6 1.6 0.00 0.38 0.00 84 1015.9
20260904222446 13 108 1.6 1.6 0.00 0.38 0.00 84 1015.9
20260904221946 13 73 1.6 1.6 0.00 0.38 0.00 84 1015.9
20260904221446 13 112 0.0 1.6 0.00 0.38 0.00 83 1015.9
20260904220946 13 155 0.0 3.2 0.00 0.38 0.00 83 1015.9
20260904220450 13 78 0.0 1.6 0.00 0.38 0.00 83 1015.9
20260904215946 14 83 1.6 1.6 0.00 0.38 0.00 82 1015.9
20260904215446 14 94 1.6 1.6 0.00 0.38 0.00 82 1015.9
20260904214946 14 108 0.0 1.6 0.00 0.38 0.00 82 1015.9
20260904214446 14 21 0.0 1.6 0.00 0.38 0.00 82 1015.9
20260904213945 14 15 1.6 3.2 0.00 0.38 0.00 81 1015.9
20260904213446 14 84 0.0 4.8 0.00 0.38 0.00 81 1015.9
20260904212946 14 67 0.0 1.6 0.00 0.38 0.00 81 1015.9
20260904212446 14 78 1.6 1.6 0.00 0.38 0.00 81 1015.6
20260904211946 14 39 0.0 3.2 0.00 0.38 0.00 81 1015.9
20260904211445 15 74 0.0 1.6 0.00 0.38 0.00 81 1015.6
20260904210948 15 129 0.0 4.8 0.00 0.38 0.00 81 1015.6
20260904210446 15 113 1.6 3.2 0.00 0.38 0.00 81 1015.6
20260904205947 15 120 3.2 4.8 0.00 0.38 0.00 81 1015.6
20260904205446 15 63 1.6 3.2 0.00 0.38 0.00 80 1015.6
20260904204947 15 122 1.6 3.2 0.00 0.38 0.00 80 1015.6
20260904204446 15 6 0.0 3.2 0.00 0.38 0.00 80 1015.6
20260904203948 15 51 1.6 3.2 0.00 0.38 0.00 79 1015.2
20260904203446 15 8 0.0 3.2 0.00 0.38 0.00 79 1015.2
20260904202946 15 11 1.6 4.8 0.00 0.38 0.00 79 1015.2
20260904202446 15 82 1.6 3.2 0.00 0.38 0.00 79 1015.2
20260904201947 15 25 1.6 4.8 0.00 0.38 0.00 78 1015.6